Retour au catalogue

FENGYUN 1C DEB

ActifSSO
NORAD 31171·DEBRIS·🇨🇳 China

Lancé May 10, 1999 depuis Taiyuan Satellite Launch Center

Loading…

Prochains Passages (prochaines 24 heures)

TLE

FraisSource: Space-Track

Époque: Sep 13, 2026, 09:53 UTC

1 31171U 99025BHZ 26256.41238260  .00003884  00000-0  11075-2 0  9994
2 31171  98.0311 233.1043 0141112 204.9036 308.7701 14.40051163997777

Suivez FENGYUN 1C DEB en temps réel avec AllMySat

Download on the App Store